K5KTF-WX Weather Reports


time (UTC)temp
F
wind
direction
speed
knots
gust
knots
rain 1hr
in
rain 24hr
in
rain mn
in
humidity
%
barometer
mb
20260506091537 74 0 0.0 0.9 0.00 0.00 0.00 92 1008.1
20260506090041 74 0 0.0 1.7 0.00 0.00 0.00 92 1007.8
20260506084540 74 0 0.0 5.2 0.00 0.00 0.00 92 1007.8
20260506083037 74 208 0.0 3.5 0.00 0.00 0.00 92 1007.8
20260506081600 74 0 0.0 3.5 0.00 0.00 0.00 92 1007.7
20260506073039 74 277 0.9 5.2 0.00 0.00 0.00 91 1008.2
20260506071542 74 207 0.9 9.6 0.00 0.00 0.00 91 1008.3
20260506061544 74 119 0.0 7.0 0.00 0.00 0.00 91 1008.1
20260506044546 74 130 0.9 4.3 0.00 0.00 0.00 92 1008.3
20260506043043 74 0 0.0 6.1 0.00 0.00 0.00 91 1008.1
20260506041541 74 294 1.7 7.0 0.00 0.00 0.00 91 1008.2
20260506040039 75 0 0.0 1.7 0.00 0.00 0.00 91 1008.0
20260506034547 75 0 0.0 6.1 0.00 0.00 0.00 90 1007.7
20260506033037 75 126 0.0 4.3 0.00 0.00 0.00 89 1007.6
20260506031544 75 212 0.0 2.6 0.00 0.00 0.00 88 1007.5
20260506030040 76 0 0.0 1.7 0.00 0.00 0.00 87 1007.4
20260506024543 76 0 0.0 5.2 0.00 0.00 0.00 86 1007.2
20260506023036 76 0 0.0 0.9 0.00 0.00 0.00 85 1006.8
20260506021540 77 0 0.0 3.5 0.00 0.00 0.00 85 1006.6
20260506020038 77 0 0.0 1.7 0.00 0.00 0.00 84 1006.4
20260506014537 78 196 0.0 2.6 0.00 0.00 0.00 83 1006.0
20260506013040 78 188 0.0 1.7 0.00 0.00 0.00 82 1006.0
20260506011544 78 0 0.0 0.9 0.00 0.00 0.00 81 1006.0
20260506010053 79 0 0.0 0.9 0.00 0.00 0.00 79 1006.0
20260506004538 80 0 0.0 0.9 0.00 0.00 0.00 78 1006.0
20260506003037 81 0 0.0 1.7 0.00 0.00 0.00 77 1006.0
20260506001536 81 0 0.0 2.6 0.00 0.00 0.00 76 1006.1
20260506000035 81 92 0.0 5.2 0.00 0.00 0.00 75 1006.0
20260505234539 82 0 0.0 5.2 0.00 0.00 0.00 74 1006.0
20260505233045 82 0 0.9 6.1 0.00 0.00 0.00 73 1005.8
20260505231537 83 112 0.9 6.1 0.00 0.00 0.00 73 1005.6
20260505230041 83 0 0.0 5.2 0.00 0.00 0.00 73 1005.5
20260505224544 83 172 0.9 6.1 0.00 0.00 0.00 71 1005.5
20260505223041 84 185 0.9 5.2 0.00 0.00 0.00 70 1005.4
20260505221538 84 82 0.9 6.1 0.00 0.00 0.00 69 1005.3
20260505220045 84 183 0.0 7.0 0.00 0.00 0.00 69 1005.5
20260505214539 85 0 0.0 6.1 0.00 0.00 0.00 69 1005.7
20260505213039 86 149 0.9 6.1 0.00 0.00 0.00 68 1005.9
20260505211537 86 0 0.9 6.1 0.00 0.00 0.00 68 1006.0
20260505210036 86 182 0.9 7.0 0.00 0.00 0.00 67 1006.2
20260505204544 86 0 0.0 7.8 0.00 0.00 0.00 68 1006.2
20260505203041 86 281 0.9 7.0 0.00 0.00 0.00 68 1006.3
20260505201550 86 300 1.7 10.4 0.00 0.00 0.00 69 1006.7
20260505200038 86 276 0.0 5.2 0.00 0.00 0.00 68 1007.1
20260505194539 85 148 0.0 7.0 0.00 0.00 0.00 69 1007.2
20260505193036 84 155 0.0 6.1 0.00 0.00 0.00 71 1007.4
20260505191537 83 0 0.9 6.1 0.00 0.00 0.00 70 1007.5
20260505190050 83 281 0.9 5.2 0.00 0.00 0.00 72 1007.7
20260505184543 82 148 0.0 7.8 0.00 0.00 0.00 73 1007.9
20260505183059 81 250 1.7 7.0 0.00 0.00 0.00 74 1008.1
20260505181537 80 0 1.7 8.7 0.00 0.00 0.00 76 1008.1
20260505180037 78 0 0.9 7.8 0.00 0.00 0.00 78 1008.3
20260505174539 78 0 0.0 5.2 0.00 0.00 0.00 79 1008.6
20260505173048 77 223 0.0 6.1 0.00 0.00 0.00 81 1008.6
20260505171545 75 0 0.0 4.3 0.00 0.00 0.00 83 1008.8
20260505170038 75 232 0.0 3.5 0.00 0.00 0.00 84 1008.8
20260505164535 74 0 0.0 6.1 0.00 0.00 0.00 86 1008.8
20260505163041 73 146 0.0 6.1 0.00 0.00 0.00 87 1008.8
20260505161541 72 220 0.9 5.2 0.00 0.00 0.00 88 1008.7
20260505153038 71 119 0.0 0.9 0.00 0.00 0.00 91 1008.8
20260505151540 71 271 0.0 4.3 0.00 0.00 0.00 91 1008.8
20260505124544 69 0 0.0 4.3 0.00 0.00 0.00 92 1007.6
20260505123041 69 173 0.0 5.2 0.00 0.00 0.00 92 1007.4
20260505121540 69 0 0.0 4.3 0.00 0.00 0.00 92 1007.1
20260505120059 69 190 0.9 7.0 0.00 0.00 0.00 92 1006.9
20260505114538 69 0 0.0 6.1 0.00 0.00 0.00 92 1006.7
20260505113043 69 0 0.0 6.1 0.00 0.00 0.00 92 1006.8
20260505111540 69 186 0.9 7.0 0.00 0.00 0.00 92 1006.7
20260505101542 69 192 0.0 4.3 0.00 0.00 0.00 91 1006.9
20260505100041 69 0 0.0 4.3 0.00 0.00 0.00 91 1007.2
20260505094538 69 278 0.0 8.7 0.00 0.00 0.00 91 1007.2
20260505093041 69 190 0.9 5.2 0.00 0.00 0.00 91 1007.2